Home   Weather   Passau   Past weeks

Flag for Germany Past Weather in Passau, Bavaria, Germany — Yesterday and Last 2 Weeks

Now
40 °F

Quite cool.


Feels Like: 40 °F
Forecast: 45 / 49 °F
Wind: 1 mph from West

Location: Rohrbach

Current Time: Feb 21, 2017 at 8:29:58 am

Latest Report: Feb 21, 2017 at 7:00 am


Visibility: N/A

Pressure: 29.98 "Hg

Humidity: 98%

Dew Point: 40 °F

Location of PassauLocation

Past Weather in Passau — Graph

°F

Passau Temperature Yesterday

Maximum temperature yesterday: 41 °F (at 9:00 pm)
Minimum temperature yesterday: 31 °F (at 12:00 am)
Average temperature yesterday: 36 °F

High & Low Weather Summary for the Past Weeks

 TemperatureHumidityPressure
High47 °F (Feb 16, 4:00 pm)99% (Feb 19, 9:00 am)30.68 "Hg (Feb 19, 9:00 am)
Low23 °F (Feb 15, 7:00 am)45% (Feb 15, 2:00 pm)29.80 "Hg (Feb 6, 6:00 am)
Average33 °F82%30.32 "Hg
* Reported Feb 6 6:00 am — Feb 21 6:00 am, Passau, Weather by CustomWeather, © 2017

Note: Actual official high and low records may vary slightly from our data, if they occured in-between our weather recording intervals... More about our weather records

Advertising

Passau Weather History for the Previous 24 Hours

Scroll right to see more
 ConditionsComfort  
Time TempWeatherWind HumidityBarometerVisibility
6:00 am
Tue, Feb 21
40 °FFog.2 mph98%30.00 "HgN/A
5:00 am40 °FFog.2 mph98%30.01 "HgN/A
4:00 am40 °FChilly.3 mph98%30.01 "HgN/A
3:00 am40 °FFog.2 mph97%30.03 "HgN/A
2:00 am40 °FFog.5 mph96%30.05 "HgN/A
1:00 am40 °FChilly.3 mph95%30.06 "HgN/A
12:00 am40 °FFog.5 mph94%30.07 "HgN/A
11:00 pm
Mon, Feb 20
39 °FFog.3 mph94%30.09 "HgN/A
10:00 pm40 °FQuite cool.5 mph85%30.09 "HgN/A
9:00 pm41 °FFog.3 mph78%30.09 "HgN/A
8:00 pm41 °FQuite cool.3 mph79%30.10 "HgN/A
7:00 pm40 °FQuite cool.2 mph81%30.11 "HgN/A
6:00 pm40 °FChilly.2 mph85%30.11 "HgN/A
5:00 pm40 °FQuite cool.2 mph86%30.12 "HgN/A
4:00 pm40 °FQuite cool.3 mph85%30.14 "HgN/A
3:00 pm40 °FQuite cool.2 mph86%30.15 "HgN/A
2:00 pm39 °FChilly.2 mph89%30.18 "HgN/A
1:00 pm38 °FChilly.2 mph93%30.21 "HgN/A
12:00 pm38 °FChilly.1 mph94%30.23 "HgN/A
11:00 am36 °FChilly.1 mph97%30.25 "HgN/A
10:00 am35 °FChilly.2 mph98%30.26 "HgN/A
9:00 am35 °FChilly.2 mph98%30.25 "HgN/A
8:00 am33 °FChilly.No wind97%30.25 "HgN/A
Weather by CustomWeather, © 2017

See weather overviewHow to use our weather pages